Regional Weather Roundup
Issued by NWS

Home | Current Version | Previous Version | Graphics & Text | Print | Product List | Glossary Off
Versions: 1 2 3 4 5 6 7 8 9 10 11 12 13 14 15 16 17 18 19 20 21 22 23 24 25 26 27 28 29 30 31 32 33 34 35 36 37 38 39 40 41 42 43 44 45 46 47 48 49 50

000
ASUS43 KLSX 030707
RWRMO

WEATHER SUMMARY FOR MISSOURI
NATIONAL WEATHER SERVICE SPRINGFIELD MO
200 AM CDT MON AUG 03 2015

NOTE: "FAIR" INDICATES FEW OR NO CLOUDS BELOW 12,000 FEET WITH NO
       SIGNIFICANT WEATHER AND/OR OBSTRUCTIONS TO VISIBILITY.
       CURRENT SKY AND/OR WEATHER CONDITIONS ARE NOT AVAILABLE FOR
       CHILLICOTHE AND FARMINGTON.

MOZ001>031-035>038-043-044-053-054-030800-
...NORTHERN AND WESTERN MISSOURI...

CITY           SKY/WX    TMP DP  RH WIND       PRES   REMARKS
KANSAS CTY INT PTCLDY    74  68  81 SE5       29.91R
KANSAS C DTWN  CLEAR     78  70  76 NE7       29.89R
LEE`S SUMMIT   CLEAR     77  64  64 S5        29.91F
ST JOSEPH      MOCLDY    77  61  57 NE20G28   29.93R
CHILLICOTHE      N/A     71  66  84 S10       29.89F
KIRKSVILLE     CLOUDY    73  56  54 W8        29.86R

$$
MOZ066>068-077>081-088>096-101>105-030800-
...SOUTHWEST MISSOURI...

CITY           SKY/WX    TMP DP  RH WIND       PRES   REMARKS
SPRINGFIELD    CLEAR     71  63  75 SW3       29.94S
JOPLIN         PTCLDY    71  66  84 CALM      29.93S

$$
MOZ032>034-039>042-045>050-055>058-069>072-030800-
...CENTRAL MISSOURI...

CITY           SKY/WX    TMP DP  RH WIND       PRES   REMARKS
COLUMBIA       CLOUDY    73  62  68 SW13      29.85F
JEFFERSON CITY MOCLDY    77  62  59 W3        29.85F
ROLLA          PTCLDY    74  66  76 W10       29.90F
SEDALIA        CLEAR     73  62  68 S6        29.92F
WHITEMAN AFB   PTCLDY    73  64  74 SE1       29.90F
WARRENSBURG    CLEAR     73  64  73 SE5       29.90F
OSAGE BEACH    MOCLDY    73  66  78 NW7       29.93R

$$
MOZ051-052-059>065-030800-
...EAST CENTRAL MISSOURI...

CITY           SKY/WX    TMP DP  RH WIND       PRES   REMARKS
ST LOUIS INTL  MOCLDY    82  67  60 SW12      29.83F
SPIRIT OF STL  MOCLDY    76  71  85 SW7       29.83S
ST CHARLES     MOCLDY    82  67  60 W16       29.80F

$$
MOZ072>076-082>087-097>100-106>115-030800-
...SOUTH CENTRAL AND SOUTHEAST MISSOURI...

CITY           SKY/WX    TMP DP  RH WIND       PRES   REMARKS
CAPE GIRARDEAU PTCLDY    73  71  93 SW3       29.87F
FARMINGTON     PTCLDY    73  70  88 CALM      29.93S
POPLAR BLUFF   PTCLDY    76  72  87 SW5       29.87F
WEST PLAINS    CLEAR     73  68  84 CALM      29.96S

$$



USA.gov is the U.S. government's official web portal to all federal, state and local government web resources and services.